NEE-02 KRYSAOR

Last updated on Sun Dec 14 2025 00:03:49 GMT+0000 (Coordinated Universal Time)

1 39441U 13066AB 25347.31570240 .00005654 00000+0 63401-3 0 9996 2 39441 97.8725 283.1743 0066449 320.2149 39.4204 14.85604263648592
UTC large
Height (km)
Speed (km/s)
/
Latitude / Longitude
Inclination (degrees)
Orbital Period (minutes)
Azimuth
Elevation
Range (km)
Doppler Factor

Next 0 passes for location: London (51.5072 / 0.1276)

Sorry there are no passes over London.